Precipitable_Water
0.98 1.10 1.18 1.16 1.24 1.42 1.47 1.58 1.70 1.72 1.79 1.79 1.88 1.93 1.97 2.06 2.01 2.02 2.04 2.00 1.93 1.87 1.76 1.79 1.97 2.02 2.05 2.04 2.05 1.72 1.73 1.77 1.73
0.92 1.02 1.13 1.20 1.30 1.34 1.42 1.48 1.54 1.61 1.77 1.78 1.86 2.12 1.99 2.01 2.11 2.16 2.09 2.04 2.07 2.00 1.97 1.82 1.84 1.89 1.92 1.99 1.98 2.02 1.88 1.62 1.60
0.90 1.03 1.08 1.11 1.23 1.29 1.38 1.35 1.46 1.55 1.67 1.70 2.00 1.79 1.95 1.76 1.93 2.03 2.10 2.08 2.05 2.05 2.00 1.98 1.90 1.88 1.75 1.79 1.88 1.91 1.86 1.83 1.72
0.97 1.00 1.05 1.11 1.23 1.27 1.32 1.54 1.67 1.59 1.65 1.69 1.81 1.77 1.73 1.66 1.72 1.82 1.80 1.85 1.91 2.00 2.02 2.05 2.04 2.00 1.85 1.79 1.69 1.73 1.75 1.74 1.73
1.09 1.08 1.08 1.19 1.25 1.38 1.46 1.59 1.66 1.63 1.55 1.36 1.28 1.13 1.02 1.01 1.03 1.14 1.23 1.33 1.49 1.59 1.62 1.84 2.01 2.09 2.04 1.95 1.98 1.99 1.71 1.67 1.64
1.09 1.14 1.21 1.26 1.42 1.54 1.52 1.58 1.70 1.43 1.21 1.09 1.07 1.06 1.03 0.96 0.90 0.92 0.93 1.00 0.98 1.15 1.32 1.49 1.66 1.82 1.81 1.83 1.85 1.93 1.99 1.96 1.91
1.11 1.23 1.38 1.44 1.57 1.57 1.57 1.49 1.43 1.29 1.21 1.19 1.17 1.18 1.16 1.10 0.99 0.94 0.95 0.99 0.98 0.94 0.97 0.94 0.98 1.23 1.40 1.52 1.68 1.79 1.80 1.86 1.86
1.18 1.31 1.42 1.53 1.59 1.48 1.47 1.46 1.36 1.33 1.27 1.25 1.25 1.25 1.22 1.17 1.09 1.08 1.00 1.00 1.02 1.05 1.04 1.01 0.99 0.97 0.97 0.98 1.09 1.29 1.45 1.61 1.69
1.28 1.38 1.44 1.44 1.43 1.44 1.50 1.45 1.37 1.34 1.30 1.30 1.34 1.30 1.25 1.22 1.18 1.13 1.04 0.98 0.96 0.95 0.95 0.97 0.99 0.99 1.01 1.01 1.02 1.08 1.11 1.08 1.14
1.30 1.42 1.44 1.37 1.37 1.46 1.49 1.44 1.46 1.35 1.38 1.40 1.39 1.36 1.26 1.20 1.20 1.10 1.03 0.97 0.95 0.95 0.95 0.95 0.90 0.90 0.91 0.94 1.03 1.07 1.08 1.07 1.04
1.39 1.42 1.41 1.38 1.43 1.46 1.50 1.49 1.44 1.42 1.39 1.39 1.41 1.29 1.18 1.23 1.19 1.09 1.00 0.94 0.91 0.94 0.98 0.98 0.99 1.00 1.03 1.02 1.01 0.98 0.98 1.00 0.99
1.49 1.41 1.37 1.32 1.42 1.46 1.46 1.44 1.46 1.38 1.35 1.36 1.34 1.24 1.24 1.23 1.20 1.09 0.98 0.89 0.88 0.89 0.91 0.93 0.96 1.01 1.04 1.07 1.12 1.18 1.15 1.12 1.05
1.47 1.42 1.32 1.29 1.38 1.44 1.45 1.44 1.44 1.37 1.32 1.31 1.24 1.29 1.21 1.13 1.06 0.94 0.87 0.85 0.87 0.94 0.91 0.88 0.93 0.92 0.99 1.01 0.99 1.04 1.05 1.11 1.08
1.47 1.35 1.34 1.38 1.43 1.41 1.45 1.46 1.43 1.37 1.34 1.30 1.30 1.23 1.10 1.00 1.00 0.93 0.90 0.91 0.91 0.89 0.89 0.90 0.91 0.94 0.99 1.00 1.04 1.05 1.12 1.11 1.07
1.38 1.35 1.40 1.45 1.43 1.40 1.43 1.46 1.41 1.31 1.26 1.28 1.20 1.09 1.04 0.96 0.91 0.89 0.87 0.87 0.90 0.91 0.94 0.91 0.91 0.92 0.93 0.98 1.01 1.06 1.08 1.10 1.12
1.34 1.35 1.40 1.44 1.38 1.37 1.41 1.43 1.32 1.14 1.14 1.05 0.98 0.93 0.88 0.88 0.88 0.88 0.90 0.88 0.88 0.91 0.96 0.93 0.94 0.95 0.95 1.00 1.06 1.08 1.13 1.15 1.16
1.25 1.26 1.27 1.29 1.28 1.24 1.25 1.27 1.14 1.05 0.99 0.95 0.87 0.83 0.82 0.83 0.82 0.82 0.86 0.89 0.90 0.89 0.88 0.89 0.90 0.88 0.89 0.95 1.00 1.04 1.04 1.06 1.09
1.25 1.23 1.22 1.21 1.15 1.12 1.13 1.07 1.01 0.99 0.95 0.89 0.82 0.82 0.82 0.83 0.85 0.84 0.81 0.85 0.88 0.90 0.96 0.95 0.91 0.94 0.97 0.95 0.94 0.96 0.99 0.98 0.97
1.20 1.18 1.16 1.12 1.10 1.09 1.04 1.03 0.96 0.90 0.88 0.85 0.82 0.79 0.79 0.80 0.79 0.77 0.75 0.76 0.78 0.88 0.90 0.91 0.93 0.95 0.94 0.95 0.93 0.94 0.95 0.99 1.00
1.18 1.14 1.12 1.08 1.05 1.05 1.03 0.99 0.96 0.92 0.93 0.89 0.84 0.78 0.77 0.77 0.80 0.73 0.67 0.72 0.72 0.69 0.78 0.85 0.86 0.84 0.80 0.80 0.80 0.83 0.84 0.87 0.92
Wind_Speed
11 12 11 10 10 10 9 8 8 6 5 4 4 3 1 0 1 2 2 3 2 2 1 0 1 3 5 7 8 9 10 10 9
13 13 12 12 11 9 8 8 6 5 5 3 1 2 1 2 3 3 3 2 3 2 2 2 1 2 3 5 7 9 10 11 11
14 14 13 12 11 10 8 8 7 6 4 2 0 2 2 3 4 5 6 6 6 4 4 4 4 4 4 5 7 8 10 11 12
14 13 13 12 11 9 7 6 7 6 2 1 2 3 4 4 5 7 7 7 7 8 8 8 7 7 6 6 7 8 9 11 12
14 14 13 12 10 10 8 6 6 4 3 2 2 4 5 6 6 7 7 8 8 9 9 9 9 10 10 10 10 10 11 12 13
15 14 13 12 11 8 7 6 5 3 2 1 2 4 6 8 8 8 9 9 10 9 9 10 11 12 13 13 13 14 14 14 15
15 13 12 12 11 9 8 7 6 5 3 2 3 6 8 10 11 11 11 11 11 11 12 12 13 13 14 15 16 17 17 17 18
16 14 13 11 10 9 9 8 8 7 5 5 6 8 10 12 13 13 13 13 13 13 14 14 15 16 16 17 18 18 19 19 21
14 14 13 11 11 10 10 10 10 9 8 8 9 11 13 15 16 16 16 16 16 16 17 17 17 18 18 19 19 19 19 21 22
11 14 14 13 12 12 11 11 10 11 10 11 12 14 16 17 18 18 18 18 18 18 18 18 19 19 20 21 22 23 23 24 25
13 14 14 14 14 13 12 12 12 12 12 14 15 17 18 19 20 21 21 20 20 20 20 21 21 21 22 22 23 25 26 27 28
16 15 15 14 15 14 12 11 12 13 15 16 17 19 19 21 22 23 23 23 22 22 22 23 23 23 23 23 24 25 25 27 28
14 14 14 14 14 14 13 13 14 15 16 17 18 20 21 23 24 24 24 24 24 23 24 24 25 25 26 26 27 29 30 30 30
13 13 13 13 14 14 14 15 15 17 18 18 20 22 24 25 24 25 24 23 24 24 24 25 25 26 26 27 27 28 29 29 30
13 13 14 14 16 16 16 16 17 18 19 21 23 24 25 25 25 24 24 24 24 25 25 25 26 26 27 27 27 28 29 30 30
14 14 15 15 15 15 15 16 18 20 21 23 23 24 25 25 24 24 24 24 25 26 25 26 26 27 27 27 27 28 29 28 28
13 13 13 14 15 16 16 18 19 20 22 23 24 24 24 24 23 23 23 24 25 25 26 26 27 27 27 28 28 28 28 29 30
15 14 14 15 16 17 17 19 20 21 22 23 23 23 23 22 22 22 23 23 24 24 24 25 26 26 26 26 25 27 28 29 29
16 16 16 16 17 18 19 19 21 22 22 22 22 22 22 22 22 22 22 23 23 23 23 24 23 23 23 23 24 26 27 28 29
17 17 17 18 18 18 19 20 21 22 22 22 22 21 21 22 22 22 23 23 23 23 23 22 21 21 21 22 24 24 24 25 26
Wind_Direction
163 159 153 150 148 148 145 143 153 149 140 130 140 141 149 94 318 331 339 353 349 354 0 349 221 217 219 224 227 227 232 238 246
166 165 159 156 154 148 149 144 144 144 145 134 166 218 306 294 291 304 308 328 317 313 308 298 259 241 233 235 237 238 241 245 250
170 169 167 160 157 154 152 151 147 136 133 106 60 355 301 306 302 309 309 290 293 307 300 292 268 264 262 255 251 249 250 253 256
176 175 173 168 166 162 164 172 162 144 145 68 71 25 2 337 318 316 311 297 292 293 289 287 273 266 269 269 264 260 258 259 261
184 180 179 174 179 174 168 154 149 140 115 78 25 8 6 350 336 328 318 310 301 295 289 285 277 269 272 274 271 269 266 266 266
183 183 183 185 184 184 181 177 177 176 154 61 3 355 354 349 342 331 322 314 307 302 296 288 280 276 274 275 274 271 269 269 270
181 188 187 198 194 196 199 208 209 207 232 282 325 338 339 338 335 328 319 313 307 302 297 292 286 281 277 278 277 273 271 272 272
187 190 199 205 209 207 213 218 219 229 246 270 296 315 323 327 326 324 318 312 306 301 297 293 290 286 283 281 279 278 276 274 274
190 207 211 209 215 217 224 224 230 241 253 270 289 303 312 316 318 317 313 308 305 302 298 294 290 287 284 282 280 278 281 279 276
203 214 215 218 220 226 228 231 237 248 261 275 288 300 304 308 311 313 311 307 303 300 298 295 292 289 286 284 282 280 280 279 279
218 218 220 222 228 228 233 239 245 254 266 277 286 296 301 303 306 307 307 304 301 299 297 295 293 290 288 286 284 283 282 281 280
222 222 227 228 229 232 239 244 252 263 273 280 287 294 298 302 304 305 304 302 299 298 296 295 293 291 289 289 288 287 286 284 283
221 225 227 230 228 234 244 255 261 270 279 284 288 294 299 302 302 302 301 299 297 296 295 293 292 291 289 289 288 287 286 284 285
222 228 223 232 235 242 250 258 267 273 279 286 290 295 297 300 301 301 299 297 297 297 296 294 292 291 291 291 289 289 289 286 286
227 232 235 238 244 248 254 262 269 276 282 287 291 294 296 298 299 299 299 299 298 298 296 296 295 293 292 291 291 291 289 288 287
234 241 242 245 248 252 257 265 274 279 284 288 292 295 297 297 298 298 298 299 298 298 297 297 297 295 294 293 293 292 292 292 290
241 243 246 247 251 254 262 270 277 281 286 290 292 293 295 296 297 298 298 299 299 300 299 298 297 296 296 295 293 293 293 292 291
244 249 253 255 257 261 266 273 279 284 287 290 292 293 293 294 296 298 300 301 301 301 301 301 300 299 299 298 297 295 295 294 292
247 251 256 259 262 266 271 275 281 285 287 289 290 291 293 293 294 296 299 301 302 303 302 303 302 302 302 301 300 300 299 298 296
251 253 257 259 263 268 273 278 283 286 286 287 288 289 291 291 290 294 296 299 299 301 303 304 303 303 304 304 306 306 305 305 304